[[{"header":{"parameterUnit":"m.s-1","parameterCategory":1,"la1":30.2991,"la2":30.254,"lo1":-89.0895,"lo2":-89.0444,"dy":0.0017,"dx":0.0017,"nx":28,"ny":28,"refTime":"2024-12-08T03:00:00:Z","depth":0,"parameterNumber":2,"parameterNumberName":"U-component_of_WINDS"},"data":[0,0,0,0,0,0,0,0,0,0,0,0,0,0,0,0,0,0,0,0,0,0,0,0,0,0,0,0,0,0,0,0,0,0,0,0,0,0,0,0,0,0,0,0,0,0,0,0,0,0,0,0,0,0,0,0,0,0,-2.7011,-2.7012,0,-2.7103,-2.7104,-2.7105,-2.7136,-2.7136,-2.7135,-2.7135,-2.723,-2.7232,-2.7235,0,0,0,0,0,0,0,0,0,0,0,0,0,-2.6861,-2.6864,-2.7011,-2.7012,-2.7013,-2.7103,-2.7104,-2.7105,-2.7136,-2.7136,-2.7135,-2.7135,-2.7229,-2.7232,-2.7236,0,0,0,0,0,0,0,0,0,0,0,0,0,-2.6937,-2.6864,-2.701,-2.7039,-2.7043,-2.7103,-2.7104,-2.7106,-2.7136,-2.7136,-2.7135,-2.7135,-2.7228,-2.7232,-2.7236,-2.7274,0,0,-2.7249,-2.7251,0,0,0,0,0,0,0,0,-2.6933,-2.6942,-2.7034,-2.7037,-2.7041,-2.7107,-2.7086,-2.7162,-2.7136,-2.7101,-2.7135,-2.7134,-2.7189,-2.7197,-2.7216,-2.7279,-2.7283,-2.725,-2.7252,-2.7254,-2.7255,0,0,0,0,0,0,0,-2.6927,-2.6939,-2.7047,-2.7035,-2.704,-2.7047,-2.7058,-2.7101,-2.7147,-2.7104,-2.7106,-2.7117,-2.7191,-2.7211,-2.7218,-2.7284,-2.725,-2.7253,-2.7256,-2.7258,-2.7383,-2.7384,0,0,0,0,0,0,-2.6917,-2.6934,-2.7044,-2.705,-2.6984,-2.7051,-2.7062,-2.7087,-2.7147,-2.7155,-2.7117,-2.7118,-2.7204,-2.7213,-2.7221,-2.727,-2.7254,-2.7258,-2.7261,-2.7382,-2.7383,-2.7384,0,0,0,0,0,0,-2.6914,-2.6927,-2.7041,-2.6993,-2.7008,-2.7054,-2.7081,-2.7089,-2.7109,-2.7157,-2.7165,-2.7129,-2.7204,-2.7215,-2.7261,-2.7273,-2.726,-2.7264,-2.7381,-2.7383,-2.7384,-2.7366,0,0,0,0,0,0,-2.6909,-2.6925,-2.694,-2.6993,-2.701,-2.7078,-2.7082,-2.7091,-2.7116,-2.7118,-2.717,-2.7178,-2.7204,-2.7254,-2.7265,-2.7279,-2.7267,-2.7381,-2.7382,-2.7383,-2.7366,-2.7367,-2.7367,0,0,0,0,0,-2.6904,-2.6932,-2.6941,-2.6954,-2.703,-2.7079,-2.7089,-2.7118,-2.7117,-2.7132,-2.7163,-2.7177,-2.727,-2.7259,-2.7271,-2.7287,-2.738,-2.7382,-2.7383,-2.7366,-2.7367,-2.7367,0,0,0,0,0,0,-2.688,-2.6939,-2.695,-2.6996,-2.7032,-2.7084,-2.7104,-2.7119,-2.7156,-2.7156,-2.7191,-2.7203,-2.7246,-2.7271,-2.7257,-2.7327,-2.7326,-2.733,-2.7308,-2.731,-2.731,-2.7303,-2.7271,0,0,0,0,0,-2.688,-2.6915,-2.6965,-2.7,-2.7018,-2.7058,-2.708,-2.71,-2.7139,-2.7155,-2.7189,-2.7226,-2.7264,-2.7289,-2.7326,-2.737,-2.7382,-2.7387,-2.7388,-2.7388,-2.7391,-2.7416,-2.7418,-2.7389,-2.7389,-2.7389,0,0,-2.688,-2.6917,-2.6937,-2.6996,-2.7027,-2.7062,-2.7071,-2.7108,-2.7134,-2.716,-2.7205,-2.7232,-2.7276,-2.732,-2.7342,-2.7343,-2.7402,-2.739,-2.739,-2.7393,-2.7418,-2.742,-2.7423,-2.7391,-2.739,-2.739,0,0,-2.6898,-2.693,-2.6963,-2.6993,-2.7039,-2.7065,-2.7073,-2.7123,-2.7142,-2.7187,-2.7208,-2.724,-2.7304,-2.7335,-2.7359,-2.7389,-2.7402,-2.74,-2.7403,-2.7427,-2.7429,-2.7431,-2.7441,-2.7444,-2.7403,-2.7403,-2.7403,0,-2.6893,-2.6947,-2.6978,-2.7014,-2.7039,-2.7065,-2.7098,-2.7126,-2.7182,-2.7199,-2.7199,-2.728,-2.7312,-2.7364,-2.7371,-2.739,-2.74,-2.7394,-2.7426,-2.7429,-2.7431,-2.7441,-2.7445,-2.7402,-2.7402,-2.7402,-2.7402,0,-2.6937,-2.6974,-2.6995,-2.7048,-2.7076,-2.711,-2.7147,-2.7171,-2.7189,-2.7215,-2.7261,-2.73,-2.7345,-2.7359,-2.7377,-2.7414,-2.7413,-2.7419,-2.7419,-2.7433,-2.7443,-2.7447,-2.7401,-2.7402,-2.7402,-2.7402,0,0,-2.6943,-2.7012,-2.7019,-2.7043,-2.7096,-2.7125,-2.7161,-2.7205,-2.7225,-2.7263,-2.7293,-2.7348,-2.7354,-2.7381,-2.7402,-2.7423,-2.7443,-2.7427,-2.7428,-2.7428,-2.7486,-2.748,-2.7484,-2.7453,-2.7454,-2.7454,-2.7482,0,-2.6967,-2.7031,-2.706,-2.7111,-2.7145,-2.717,-2.7201,-2.7237,-2.7262,-2.7295,-2.7324,-2.7361,-2.7367,-2.7383,-2.7405,-2.7436,-2.7455,-2.7435,-2.7481,-2.7482,-2.7468,-2.7489,-2.7483,-2.7507,-2.7486,-2.7486,-2.7487,0,-2.7004,-2.7041,-2.7095,-2.7143,-2.7159,-2.7186,-2.7229,-2.726,-2.7301,-2.7318,-2.7348,-2.7369,-2.7407,-2.7405,-2.7458,-2.7443,-2.7464,-2.7482,-2.7484,-2.7488,-2.7485,-2.7493,-2.7515,-2.7518,-2.7493,-2.7493,-2.7492,0,-2.7001,-2.7065,-2.7106,-2.7126,-2.7183,-2.7201,-2.7226,-2.7266,-2.7291,-2.7329,-2.7345,-2.7387,-2.741,-2.7442,-2.7473,-2.7468,-2.7522,-2.7523,-2.7537,-2.7537,-2.7547,-2.7546,-2.7572,-2.7562,-2.7562,-2.7562,-2.7561,0,-2.7025,-2.7057,-2.7105,-2.713,-2.7166,-2.72,-2.7235,-2.7262,-2.7297,-2.7328,-2.7352,-2.738,-2.742,-2.7453,-2.7478,-2.7518,-2.7528,-2.7543,-2.7549,-2.754,-2.7538,-2.7554,-2.7552,-2.7563,-2.7562,-2.7562,-2.7562,0,-2.7027,-2.7061,-2.7107,-2.7157,-2.717,-2.7195,-2.7238,-2.7264,-2.729,-2.7329,-2.734,-2.7382,-2.7422,-2.7457,-2.751,-2.7526,-2.7567,-2.7575,-2.7553,-2.7556,-2.7569,-2.7567,-2.7605,-2.7611,-2.7597,-2.7597,-2.7597,0,-2.7039,-2.7065,-2.7118,-2.714,-2.7164,-2.7199,-2.7225,-2.7259,-2.7284,-2.7332,-2.7351,-2.7394,-2.7429,-2.7492,-2.7528,-2.7569,-2.7577,-2.7587,-2.7583,-2.7573,-2.7576,-2.7574,-2.7576,-2.7587,-2.7587,-2.7587,-2.7587,0,-2.7058,-2.7073,-2.7108,-2.715,-2.7179,-2.7213,-2.7248,-2.7265,-2.7305,-2.7333,-2.7374,-2.7401,-2.7456,-2.7497,-2.7542,-2.7567,-2.7584,-2.7588,-2.7594,-2.7585,-2.7571,-2.7578,-2.7553,-2.7587,-2.7587,-2.7587,-2.7587,-2.7587,-2.7065,-2.7088,-2.7129,-2.7168,-2.7197,-2.7229,-2.7255,-2.7285,-2.732,-2.7367,-2.7385,-2.7427,-2.7467,-2.7529,-2.7555,-2.7588,-2.7591,-2.7599,-2.7601,-2.7602,-2.76,-2.7566,-2.7597,-2.7597,-2.7597,-2.7597,-2.7597,0,-2.7084,-2.7111,-2.7146,-2.7194,-2.7224,-2.7237,-2.7277,-2.7301,-2.7338,-2.7374,-2.7408,-2.7456,-2.7496,-2.7535,-2.7577,-2.7596,-2.7605,-2.7606,-2.7605,-2.761,-2.7596,-2.7587,-2.7598,-2.7598,-2.7598,-2.7598,-2.7598,-2.7598,-2.7097,-2.7136,-2.7157,-2.7212,-2.7239,-2.728,-2.7301,-2.7331,-2.736,-2.7412,-2.7445,-2.747,-2.7508,-2.7553,-2.759,-2.7601,-2.7615,-2.7614,-2.7626,-2.7612,-2.7611,-2.7611,-2.7602,-2.7617,-2.7617,-2.7637,-2.7638,-2.7638]},{"header":{"parameterUnit":"m.s-1","parameterCategory":1,"la1":30.2991,"la2":30.254,"lo1":-89.0895,"lo2":-89.0444,"dy":0.0017,"dx":0.0017,"nx":28,"ny":28,"refTime":"2024-12-08T03:00:00:Z","depth":0,"parameterNumber":3,"parameterNumberName":"V-component_of_WINDS"},"data":[0,0,0,0,0,0,0,0,0,0,0,0,0,0,0,0,0,0,0,0,0,0,0,0,0,0,0,0,0,0,0,0,0,0,0,0,0,0,0,0,0,0,0,0,0,0,0,0,0,0,0,0,0,0,0,0,0,0,5.4585,5.4585,0,5.4608,5.4608,5.4609,5.4548,5.4546,5.4544,5.4542,5.4564,5.4567,5.4569,0,0,0,0,0,0,0,0,0,0,0,0,0,5.4488,5.449,5.4585,5.4585,5.4585,5.4608,5.4608,5.4609,5.4548,5.4546,5.4544,5.4541,5.4564,5.4566,5.4569,0,0,0,0,0,0,0,0,0,0,0,0,0,5.4522,5.449,5.4585,5.4558,5.4556,5.4608,5.4608,5.4609,5.4549,5.4546,5.4543,5.454,5.4563,5.4566,5.457,5.4648,0,0,5.458,5.4582,0,0,0,0,0,0,0,0,5.452,5.4526,5.4561,5.456,5.4557,5.4572,5.4582,5.4622,5.4549,5.4551,5.4542,5.4539,5.4569,5.4572,5.4582,5.4649,5.465,5.4581,5.4583,5.4584,5.4585,0,0,0,0,0,0,0,5.4518,5.4525,5.4594,5.4562,5.456,5.4545,5.4547,5.4589,5.4576,5.4551,5.4547,5.455,5.4567,5.4579,5.4583,5.465,5.4581,5.4584,5.4586,5.4587,5.4786,5.4789,0,0,0,0,0,0,5.4519,5.4523,5.4593,5.4594,5.4532,5.4549,5.4551,5.457,5.4575,5.4573,5.4553,5.4547,5.4575,5.4579,5.4583,5.4678,5.4584,5.4588,5.459,5.4783,5.4787,5.479,0,0,0,0,0,0,5.4517,5.4526,5.4592,5.4558,5.4565,5.4554,5.4576,5.4572,5.4584,5.4577,5.4574,5.4567,5.4573,5.4578,5.4633,5.4678,5.4589,5.4592,5.4779,5.4784,5.4789,5.4867,0,0,0,0,0,0,5.4515,5.4526,5.4555,5.4559,5.4567,5.4642,5.4579,5.4575,5.459,5.4584,5.4589,5.4588,5.4571,5.4628,5.4637,5.4681,5.4595,5.4775,5.4781,5.4787,5.486,5.4874,5.4885,0,0,0,0,0,5.4512,5.4575,5.4557,5.4566,5.4604,5.4645,5.4649,5.4629,5.4594,5.4624,5.462,5.4587,5.4671,5.4635,5.4643,5.469,5.4772,5.478,5.4787,5.4855,5.4871,5.4885,0,0,0,0,0,0,5.4575,5.4575,5.4555,5.4621,5.4634,5.4634,5.4671,5.4647,5.4669,5.4661,5.4635,5.4636,5.4697,5.4698,5.4657,5.4768,5.4716,5.4725,5.4765,5.478,5.4793,5.4792,5.4598,0,0,0,0,0,5.4598,5.4631,5.4629,5.4688,5.4695,5.4683,5.47,5.4683,5.4695,5.4699,5.4699,5.4711,5.474,5.476,5.4786,5.486,5.4862,5.4896,5.4909,5.4919,5.4928,5.497,5.4986,5.4814,5.4814,5.4814,0,0,5.4643,5.4647,5.467,5.4701,5.4709,5.4745,5.4687,5.4727,5.4754,5.4705,5.4758,5.4759,5.477,5.4836,5.4865,5.4839,5.4976,5.4928,5.4936,5.494,5.4979,5.4996,5.501,5.4819,5.4818,5.4817,0,0,5.4745,5.4751,5.4802,5.4812,5.4825,5.4817,5.4829,5.4834,5.4833,5.4886,5.4852,5.4883,5.4933,5.4944,5.4956,5.5066,5.5038,5.5075,5.514,5.5182,5.5196,5.5208,5.5249,5.5264,5.5083,5.5083,5.5084,0,5.48,5.4854,5.4831,5.4875,5.4891,5.485,5.4903,5.4913,5.4933,5.4946,5.4916,5.4981,5.4985,5.5055,5.5082,5.5092,5.5107,5.5074,5.5196,5.5207,5.5218,5.5258,5.5273,5.5088,5.5088,5.5087,5.5087,0,5.4922,5.496,5.5,5.5023,5.5043,5.5091,5.5077,5.51,5.5082,5.5077,5.5133,5.5138,5.5166,5.5181,5.5163,5.5249,5.5233,5.52,5.5148,5.524,5.5277,5.5291,5.5095,5.5093,5.5092,5.509,0,0,5.5064,5.5077,5.5092,5.5104,5.5117,5.5145,5.5192,5.5221,5.5243,5.5258,5.5298,5.5343,5.5314,5.5328,5.5311,5.5347,5.5438,5.531,5.531,5.5336,5.5536,5.5562,5.558,5.5419,5.5422,5.5424,5.5536,0,5.5167,5.5249,5.5232,5.5312,5.5348,5.5311,5.5352,5.5365,5.5362,5.5392,5.5388,5.5422,5.5379,5.5388,5.5422,5.542,5.5478,5.5411,5.5457,5.5459,5.5457,5.5599,5.5626,5.5732,5.555,5.5552,5.5554,0,5.5298,5.5322,5.5407,5.5417,5.5431,5.5469,5.5496,5.5524,5.5539,5.5534,5.5552,5.5529,5.5576,5.5523,5.5589,5.5544,5.5562,5.5564,5.5567,5.5572,5.5513,5.561,5.5764,5.5782,5.5576,5.5574,5.5572,0,5.5398,5.545,5.5509,5.5519,5.5531,5.5559,5.5566,5.5577,5.5597,5.562,5.5632,5.566,5.5676,5.5698,5.5684,5.5646,5.5754,5.5698,5.5753,5.5753,5.5778,5.5777,5.594,5.5786,5.5786,5.5785,5.5785,0,5.5516,5.557,5.5554,5.559,5.565,5.563,5.569,5.5691,5.5703,5.5739,5.5707,5.5742,5.572,5.5753,5.5742,5.58,5.5807,5.5806,5.5802,5.581,5.5811,5.5822,5.5816,5.579,5.5789,5.5788,5.5787,0,5.5637,5.5628,5.569,5.5698,5.5701,5.5745,5.5752,5.5786,5.5781,5.5828,5.5838,5.5831,5.5868,5.5856,5.5896,5.5889,5.5964,5.5949,5.596,5.5957,5.6013,5.6009,5.6191,5.6215,5.6043,5.6045,5.6046,0,5.5714,5.5756,5.5769,5.5792,5.5801,5.5838,5.5858,5.584,5.5863,5.5884,5.5916,5.5952,5.5979,5.6041,5.604,5.6071,5.6059,5.6121,5.6063,5.6071,5.6063,5.6062,5.6067,5.6133,5.6135,5.6136,5.6138,0,5.5854,5.5848,5.5879,5.5911,5.5937,5.596,5.598,5.6,5.5984,5.6011,5.605,5.6072,5.6114,5.6151,5.6179,5.6185,5.616,5.6156,5.617,5.6179,5.6185,5.6186,5.5994,5.6152,5.615,5.6149,5.6149,5.6148,5.5957,5.5993,5.601,5.6046,5.606,5.608,5.6114,5.6115,5.6148,5.6182,5.6169,5.6215,5.623,5.6266,5.6277,5.6312,5.6289,5.6309,5.6315,5.6321,5.633,5.6178,5.6317,5.6317,5.6316,5.6316,5.6316,0,5.6097,5.6106,5.6141,5.6171,5.6201,5.6175,5.6196,5.6223,5.6264,5.6281,5.631,5.6356,5.6392,5.6394,5.6427,5.6456,5.6445,5.6466,5.6464,5.6467,5.6347,5.6333,5.6474,5.6474,5.6474,5.6474,5.6474,5.6474,5.6174,5.6235,5.6232,5.63,5.6308,5.6354,5.6369,5.6389,5.6402,5.6456,5.6486,5.6488,5.6499,5.6534,5.6566,5.6566,5.6581,5.6606,5.6602,5.6491,5.6475,5.646,5.6446,5.6609,5.6609,5.6719,5.672,5.6721]}]]